Regional Weather Roundup
Issued by NWS

Home | Current Version | Previous Version | Graphics & Text | Print | Product List | Glossary On
Versions: 1 2 3 4 5 6 7 8 9 10 11 12 13 14 15 16 17 18 19 20 21 22 23 24 25 26 27 28 29 30 31 32 33 34 35 36 37 38 39 40 41 42 43 44 45 46 47 48 49 50
000
ASUS43 KLOT 210806
RWRIL

ILLINOIS REGIONAL WEATHER ROUNDUP
NATIONAL WEATHER SERVICE CHICAGO/ROMEOVILLE IL
300 AM CDT MON APR 21 2014

NOTE: "FAIR" INDICATES FEW OR NO CLOUDS BELOW 12,000 FEET WITH NO
SIGNIFICANT WEATHER AND/OR OBSTRUCTIONS TO VISIBILITY.

* THESE STATIONS ARE NOT UNDER NWS QUALITY CONTROL. THEY ALSO MAY NOT
  REPORT WEATHER SUCH AS PRECIPITATION OR FOG.

ILZ001-002-007-009-015-016-024-210900-
NORTHWEST ILLINOIS

CITY           SKY/WX    TMP DP  RH WIND       PRES   REMARKS
MOLINE         PTCLDY    63  42  46 S9        29.96F
STERLING*      CLOUDY    61  45  55 W3        29.97F
SAVANNA*       CLOUDY    59  47  63 NE5       29.97S
$$

ILZ003-004-008-010-011-017-018-210900-
NORTH CENTRAL ILLINOIS

CITY           SKY/WX    TMP DP  RH WIND       PRES   REMARKS
ROCKFORD       CLOUDY    61  44  53 S5        29.99F
FREEPORT*      CLOUDY    64  47  53 SW7       30.00S
ROCHELLE*      CLOUDY    58  44  59 SW7       29.99F
DE KALB*       CLOUDY    55  44  66 S8        30.00F
PERU*          CLOUDY    59  43  56 CALM      29.99F
$$

ILZ005-006-012>014-019>023-210900-
NORTHEAST ILLINOIS

CITY           SKY/WX    TMP DP  RH WIND       PRES   REMARKS
CHICAGO-OHARE  CLOUDY    64  40  41 SW9       30.00S
CHICAGO-MIDWAY CLOUDY    63  43  48 S9        30.00F
AURORA         CLOUDY    56  45  66 SE3       30.00F
LANSING*       MOCLDY    55  41  60 S6        30.02S
JOLIET*        MOCLDY    57  42  57 CALM      30.01F
WAUKEGAN       LGT RAIN  60  43  53 SW9       29.99S
DUPAGE AIRPORT CLOUDY    57  44  62 S7        29.99F
KANKAKEE*      MOCLDY    55  43  63 S6        30.03S
WHEELING       CLOUDY    65  43  44 SW8       30.00F
MORRIS*        MOCLDY    58  38  47 CALM      30.00F
ROMEOVILLE*    MOCLDY    58  42  55 S6        30.01S
NORTHERLY ISL    N/A     65  40  39 S8          N/A
$$

LMZ740>746-210900-
SOUTHERN LAKE MICHIGAN

STATION/POSITION SKY/WX   TEMP    WIND        PRES    VSBY  WAVE
                          AIR SEA DIR/SP/G                  HT/PER
                          (F)     (DEG/KT/KT) (MB)    (MI)  (FT/S)
WAUKEGAN HARBOR            64     220/ 15/ 18 1016.6F
HARRISON CRIB              66     200/ 14/ 19   N/A
BURNHAM HARBOR             65     190/  6/ 10   N/A
CALUMET HARBOR             62     180/  4/  5 1016.9F
MICHIGAN CITY              63     160/ 12/ 15   N/A
$$

ILZ025>027-034>036-040-047-049-050-058-095>099-210900-
WEST-CENTRAL ILLINOIS

CITY           SKY/WX    TMP DP  RH WIND       PRES   REMARKS
QUINCY         CLOUDY    65  45  48 S5        30.00S
GALESBURG*     MOCLDY    58  46  65 S7        29.98F
MACOMB*        CLOUDY    62  45  53 SW5       30.01F
JACKSONVILLE*  CLOUDY    63  46  53 S7        30.02S
PITTSFIELD*    CLOUDY    65  46  51 SW3       30.02S
$$

ILZ028>032-037-038-041>044-048-051>054-059>061-210900-
CENTRAL ILLINOIS

CITY           SKY/WX    TMP DP  RH WIND       PRES   REMARKS
PONTIAC        MOCLDY    61  45  55 S7        30.01F
BLOOMINGTON    MOCLDY    55  42  61 S7        30.03F
DECATUR        CLOUDY    60  44  55 S9        30.02F
PEORIA         CLOUDY    60  44  55 S5        29.99F
LACON*         MOCLDY    64  43  47 S5        29.98F
LINCOLN*       CLOUDY    60  45  57 S5        30.00F
SPRINGFIELD    CLOUDY    66  44  45 S12       30.00F
TAYLORVILLE    CLOUDY    61  45  55 S9        30.02S
$$

ILZ033-039-045-046-055>057-062-063-210900-
EAST-CENTRAL ILLINOIS

CITY           SKY/WX    TMP DP  RH WIND       PRES   REMARKS
CHAMPAIGN      MOCLDY    57  42  57 SE8       30.04F
RANTOUL*       CLOUDY    57  43  60 CALM      30.04F
MATTOON        CLOUDY    61  43  51 S6        30.03F
PARIS*         CLOUDY    54  46  73 S3        30.06F
$$

ILZ079-100>102-210900-
SOUTHWEST ILLINOIS

CITY           SKY/WX    TMP DP  RH WIND       PRES   REMARKS
ALTON          CLOUDY    62  45  53 S5        30.03S
BELLEVILLE     MOCLDY    60  51  70 SE2       30.02F
CAHOKIA*       MOCLDY    61  48  62 SE5       30.02F
SPARTA*        PTCLDY    61  45  55 SE5       30.04F
$$

ILZ064>066-069>071-074>076-080>082-084>086-088>090-092>094-210900-
SOUTH-CENTRAL ILLINOIS

CITY           SKY/WX    TMP DP  RH WIND       PRES   REMARKS
CARBONDALE     PTCLDY    55  46  71 CALM      30.05F
CAIRO*         MOCLDY    57  51  82 CALM      30.05F
MARION         PTCLDY    59  46  63 CALM      30.05F
MT. VERNON     MOCLDY    52  41  66 CALM      30.05F
CENTRALIA*       N/A     60  45  58 CALM      30.04F
SALEM*         MOCLDY    63  47  56 S3        30.05F
METROPOLIS*    MOCLDY    54  49  83 CALM      30.06S
$$

ILZ067-068-072-073-078-083-087-091-210900-
SOUTHEAST ILLINOIS

CITY           SKY/WX    TMP DP  RH WIND       PRES   REMARKS
FAIRFIELD*     MOCLDY    59  46  63 CALM      30.05F
HARRISBURG*    PTCLDY    54  49  82 CALM      30.07S
ROBINSON*      CLOUDY    55  50  84 CALM      30.06F
CARMI*         MOCLDY    56  51  86 S3        30.05F
$$

ABBREVIATIONS USED IN REMARKS
   TC - TEMPERATURE IN CELSIUS
  WCI - WIND CHILL INDEX
   HX - HEAT INDEX
  VSB - VISIBILITY
$$




USA.gov is the U.S. government's official web portal to all federal, state and local government web resources and services.